Flag for Slovakia Weather past 2 weeks in Bratislava, Slovakia

Now
25 °F

Clear.


Feels Like: 25 °F
Forecast: 26 / 35 °F
Wind: 1 mph from North

Location: Bratislava Ivanka

Current Time: Jan 27, 2015 at 2:26:41 AM

Latest Report: Jan 27, 2015 at 2:00 AM


Visibility: 10 mi

Pressure: 30.07 "Hg

Humidity: 86%

Dew point: 21 °F

Location of BratislavaLocation

Historic Weather in Bratislava — Graph

°F

Bratislava temperature yesterday

Maximum temperature yesterday: 37 °F (at 10:30 AM)
Minimum temperature yesterday: 27 °F (at 9:00 PM)
Average temperature yesterday: 33 °F

Past Weeks' High & Low Weather Summary

 TemperatureHumidityPressure
High50 °F (Jan 16, 1:00 PM)100% (Jan 20, 11:00 AM)30.30 "Hg (Jan 20, 11:00 AM)
Low27 °F (Jan 13, 4:30 AM)46% (Jan 12, 5:30 PM)29.80 "Hg (Jan 17, 5:00 AM)
Average38 °F80%30.02 "Hg
* Reported Jan 12 1:00 AM — Jan 27 1:00 AM, Bratislava, Weather by CustomWeather, © 2014

Note: Actual official high and low records may vary slightly from our data, if they occured in-between our weather recording intervals... More about our weather records

Advertising

Bratislava weather history for previous 24 hours

 ConditionsComfort  
Time TempWeatherWind HumidityBarometerVisibility
1:00 AM
Jan 27
27 °FClear.1 mph80%30.09 "Hg10 mi
12:30 AM28 °FClear.3 mph80%30.09 "Hg10 mi
12:00 AM27 °FClear.2 mph80%30.12 "Hg10 mi
11:30 PM
Jan 26
28 °FClear.3 mph80%30.12 "Hg10 mi
11:00 PM28 °FPassing clouds.5 mph80%30.12 "HgN/A
10:00 PM27 °FPassing clouds.1 mph86%30.15 "HgN/A
9:30 PM28 °FPassing clouds.2 mph80%30.15 "HgN/A
9:00 PM27 °FPassing clouds.1 mph86%30.18 "HgN/A
8:30 PM28 °FClear.No wind80%30.18 "Hg10 mi
8:00 PM28 °FClear.No wind80%30.18 "Hg10 mi
7:30 PM28 °FPassing clouds.1 mph80%30.18 "HgN/A
7:00 PM30 °FPassing clouds.No wind75%30.21 "HgN/A
5:30 PM32 °FClear.2 mph69%30.21 "Hg10 mi
5:00 PM32 °FClear.3 mph75%30.21 "Hg10 mi
4:30 PM34 °FSunny.5 mph65%30.21 "Hg10 mi
4:00 PM36 °FPassing clouds.8 mph60%30.21 "HgN/A
3:30 PM37 °FPassing clouds.8 mph56%30.21 "HgN/A
3:00 PM37 °FPassing clouds.12 mph56%30.21 "HgN/A
2:30 PM37 °FPassing clouds.10 mph56%30.24 "HgN/A
2:00 PM37 °FPassing clouds.9 mph60%30.24 "HgN/A
1:30 PM37 °FPassing clouds.10 mph60%30.24 "HgN/A
1:00 PM37 °FPassing clouds.12 mph60%30.24 "HgN/A
12:30 PM37 °FPassing clouds.10 mph60%30.27 "HgN/A
12:00 PM37 °FScattered clouds.15 mph56%30.27 "HgN/A
11:30 AM37 °FPassing clouds.15 mph56%30.27 "HgN/A
11:00 AM37 °FScattered clouds.15 mph56%30.27 "HgN/A
10:30 AM37 °FPassing clouds.15 mph56%30.30 "HgN/A
10:00 AM36 °FPassing clouds.13 mph65%30.30 "HgN/A
9:30 AM36 °FScattered clouds.13 mph70%30.27 "HgN/A
9:00 AM34 °FPartly sunny.12 mph75%30.30 "HgN/A
8:30 AM34 °FPartly sunny.8 mph70%30.30 "HgN/A
8:00 AM32 °FPartly sunny.8 mph75%30.27 "HgN/A
7:30 AM32 °FPartly sunny.9 mph69%30.27 "HgN/A
7:00 AM32 °FPassing clouds.8 mph75%30.27 "HgN/A
6:30 AM32 °FPassing clouds.8 mph75%30.27 "HgN/A
6:00 AM32 °FPassing clouds.6 mph75%30.27 "HgN/A
5:30 AM32 °FPassing clouds.8 mph80%30.27 "HgN/A
5:00 AM32 °FPassing clouds.12 mph80%30.27 "HgN/A
4:30 AM34 °FPassing clouds.10 mph75%30.27 "HgN/A
4:00 AM34 °FPassing clouds.8 mph75%30.27 "HgN/A
3:30 AM34 °FPartly cloudy.10 mph75%30.27 "HgN/A
3:00 AM32 °FPassing clouds.8 mph80%30.27 "HgN/A
2:30 AM34 °FPassing clouds.10 mph75%30.27 "HgN/A
2:00 AM34 °FPassing clouds.9 mph75%30.27 "HgN/A
Weather by CustomWeather, © 2014

See weather overviewHow to use our weather pages